#timestamp,LO_Frequency,Hit,StdDev 
1510272015.7,286047001.2,N
1510272035.5,286046995.8,N
1510272055.4,286046995.1,N
1510272075.2,286046997.2,N
1510272095.0,286046999.3,N
1510272095.9,286046999.3,N
1510272115.8,286046997.0,N
1510272135.6,286046995.5,N
1510272155.4,286046993.9,N
1510272175.3,286046994.0,N
1510272195.1,286046997.5,N
1510272196.0,286046997.5,N
1510272215.8,286046996.9,N
1510272235.7,286047000.4,N
1510272255.5,286047002.4,N
1510272275.3,286046998.2,N
1510272295.1,286047001.2,N
1510272315.9,286046997.1,N
1510272335.7,286046998.8,N
1510272355.5,286047001.1,N
1510272375.4,286047002.3,N
1510272395.2,286047001.7,N
1510272415.0,286047004.2,N
1510272415.9,286047004.2,N
1510272435.8,286047002.4,N
1510272455.6,286046998.9,N
1510272475.4,286046996.4,N
1510272495.3,286046991.7,N
1510272515.1,286046991.0,N
1510272516.0,286046991.0,N
1510272535.8,286046992.9,N
1510272555.7,286046991.0,N
1510272575.5,286046990.0,N
1510272595.3,286046990.6,N
1510272615.2,286046991.5,N
1510272635.9,286046991.2,N
1510272655.7,286046987.3,N
1510272675.5,286046989.7,N
1510272695.4,286046986.9,N
1510272715.2,286046989.2,N
1510272735.0,286046986.9,N
1510272735.9,286046986.9,N
1510272755.8,286046987.7,N
1510272775.6,286046987.0,N
1510272795.4,286046986.9,N
1510272815.3,286046987.0,N
1510272835.1,286046987.2,N
1510272855.8,286046984.3,N
1510272875.7,286046986.4,N
1510272895.5,286046986.7,N
1510272915.3,286046985.9,N
1510272935.2,286046989.2,N
1510272955.9,286046987.9,N
1510272975.7,286046989.3,N
1510272995.6,286046991.4,N
1510273015.4,286046990.9,N
1510273035.2,286046986.3,Y
1510273055.1,286046997.7,P
1510273056.0,286046997.7,N
1510273075.8,286046999.9,N
1510273095.6,286046999.3,N
1510273115.5,286046998.6,N
1510273135.3,286046999.3,N
1510273155.1,286046999.4,N
1510273175.8,286046995.2,N
1510273195.7,286046997.7,N
1510273215.5,286046998.1,N
1510273235.3,286046996.7,N
1510273255.2,286046996.5,N
1510273275.9,286047002.4,N
1510273295.7,286047001.2,N
1510273315.6,286047002.4,N
1510273335.4,286047003.7,N
1510273355.2,286047007.2,N
1510273375.1,286047009.4,N
1510273376.0,286047009.4,N
1510273395.8,286047008.8,N
1510273415.6,286047007.6,N
1510273435.4,286047007.6,N
1510273455.3,286047008.6,N
1510273475.1,286047010.1,N
1510273495.8,286047009.4,N
1510273515.7,286047012.4,N
1510273535.5,286047012.1,N
1510273555.3,286047013.9,N
1510273575.2,286047011.0,N
1510273595.9,286047009.6,N
1510273615.7,286047011.9,N
1510273635.6,286047012.3,N
1510273655.4,286047009.8,N
1510273675.2,286047013.6,N
1510273695.1,286047014.8,N
1510273696.0,286047014.8,N
1510273715.8,286047013.9,N
1510273735.6,286047008.8,N
1510273755.5,286047011.4,N
1510273775.3,286047011.4,N
1510273795.1,286047012.7,N
1510273815.9,286047013.1,Y
1510273835.7,286047009.0,P
1510273855.5,286047008.8,P
1510273875.3,286047009.5,P
1510273895.2,286047010.4,Y
1510273915.0,286047000.2,P
1510273915.9,286047000.2,N
1510273935.8,286046999.9,N
1510273955.6,286046996.9,N
1510273975.4,286046997.7,N
1510273995.2,286047004.2,N
1510274015.1,286047003.4,N
1510274016.0,286047003.4,N
1510274035.8,286047005.9,N
1510274055.6,286047005.5,N
1510274075.5,286047006.0,N
1510274095.3,286047001.7,N
1510274115.1,286047001.6,N
1510274135.9,286047005.2,N
1510274155.7,286047003.2,N
1510274175.5,286047002.5,N
1510274195.4,286047002.6,N
1510274215.2,286047005.0,N
1510274235.0,286047010.4,Y
1510274235.9,286047010.4,P
1510274255.8,286047006.9,N
1510274275.6,286047005.2,N
1510274295.4,286047004.0,N
1510274315.3,286047003.2,N
1510274335.1,286047003.7,N
1510274336.0,286047003.7,N
1510274355.8,286047003.5,N
1510274375.7,286046999.8,N
1510274395.5,286047003.3,N
1510274415.3,286047003.7,N
1510274435.1,286047000.5,N
1510274455.9,286046996.9,N
1510274475.7,286046994.4,N
1510274495.5,286046991.3,N
1510274515.4,286046991.2,N
1510274535.2,286046989.8,N
1510274555.0,286046988.4,N
1510274555.9,286046988.4,N
1510274575.8,286046986.6,N
1510274595.6,286046989.1,N
1510274615.4,286046987.7,N
1510274635.3,286046987.0,N
1510274655.1,286046985.1,N
1510274656.0,286046985.1,N
1510274675.8,286046984.4,N
1510274695.7,286046984.8,N
1510274715.5,286046983.4,N
1510274735.3,286046980.2,N
1510274755.1,286046981.1,N
1510274775.9,286046979.3,N
1510274795.7,286046979.6,N
1510274815.5,286046980.5,N
1510274835.4,286046983.3,N
1510274855.2,286046983.4,N
1510274875.0,286046980.6,N
1510274875.9,286046980.6,N
1510274895.8,286046979.5,N
1510274915.6,286046981.1,N
1510274935.4,286046981.5,N
1510274955.3,286046980.3,Y
1510274975.1,286046990.2,P
1510274995.8,286046992.7,P
1510275015.7,286046994.6,N
1510275035.5,286046995.7,N
1510275055.3,286046991.9,N
1510275075.2,286046992.0,N
1510275095.9,286046993.7,N
1510275115.7,286046994.7,N
1510275135.6,286046991.7,Y
1510275155.4,286047005.4,P
1510275175.2,286047005.6,N
1510275195.1,286047003.2,N
1510275196.0,286047003.2,N
1510275215.8,286047003.9,N
1510275235.6,286047002.9,N
1510275255.4,286047003.6,N
1510275275.3,286047005.8,N
1510275295.1,286047003.1,N
1510275315.8,286047003.2,N
1510275335.7,286047006.7,N
1510275355.5,286047006.7,N
1510275375.3,286047008.9,N
1510275395.2,286047010.7,N
1510275415.9,286047009.4,N
1510275435.7,286047011.2,N
1510275455.6,286047011.5,N
1510275475.4,286047011.5,N
1510275495.2,286047011.6,N
1510275515.0,286047012.9,N
1510275516.0,286047012.9,N
1510275535.8,286047016.9,Y
1510275555.6,286047012.8,P
1510275575.5,286047011.7,P
1510275595.3,286047011.2,P
